TimeCST,TemperatureF,Dew PointF,Humidity,Sea Level PressureIn,VisibilityMPH,Wind Direction,Wind SpeedMPH,Gust SpeedMPH,PrecipitationIn,Events,Conditions,WindDirDegrees,DateUTC
12:03 AM,55.4,50.0,82,30.07,2.5,East,3.5,-,N/A,,Haze,80,2012-12-06 06:03:00
12:10 AM,53.6,50.0,88,30.06,6.0,East,3.5,-,N/A,,Clear,80,2012-12-06 06:10:00
12:56 AM,55.0,51.1,86,30.02,5.0,Calm,Calm,-,N/A,,Clear,0,2012-12-06 06:56:00
1:28 AM,53.6,48.2,82,30.06,2.0,North,3.5,-,N/A,,Clear,350,2012-12-06 07:28:00
1:46 AM,53.6,48.2,82,30.05,1.2,Calm,Calm,-,N/A,,Clear,0,2012-12-06 07:46:00
1:56 AM,54.0,50.0,86,30.01,0.5,Calm,Calm,-,N/A,Fog,Fog,0,2012-12-06 07:56:00
2:03 AM,51.8,48.2,88,30.05,0.2,Calm,Calm,-,N/A,Fog,Fog,0,2012-12-06 08:03:00
2:18 AM,53.6,50.0,88,30.04,0.5,Calm,Calm,-,N/A,Fog,Fog,0,2012-12-06 08:18:00
2:49 AM,51.8,46.4,82,30.03,1.5,Calm,Calm,-,N/A,,Clear,0,2012-12-06 08:49:00
2:52 AM,51.8,46.4,82,30.03,4.0,Calm,Calm,-,N/A,,Clear,0,2012-12-06 08:52:00
2:56 AM,53.1,48.0,83,29.99,5.0,ESE,3.5,-,N/A,,Haze,120,2012-12-06 08:56:00
3:56 AM,54.0,50.0,86,29.99,7.0,NNE,3.5,-,N/A,,Clear,20,2012-12-06 09:56:00
4:56 AM,53.1,48.9,86,29.99,5.0,Calm,Calm,-,N/A,,Clear,0,2012-12-06 10:56:00
5:56 AM,53.1,51.1,93,30.01,6.0,Calm,Calm,-,N/A,,Scattered Clouds,0,2012-12-06 11:56:00
6:56 AM,54.0,51.1,90,30.01,9.0,NE,3.5,-,N/A,,Partly Cloudy,50,2012-12-06 12:56:00
7:56 AM,60.1,53.1,78,30.03,10.0,ENE,5.8,-,N/A,,Partly Cloudy,70,2012-12-06 13:56:00
8:56 AM,64.9,54.0,68,30.03,10.0,East,4.6,-,N/A,,Scattered Clouds,100,2012-12-06 14:56:00
9:56 AM,70.0,55.0,59,30.02,10.0,East,5.8,-,N/A,,Scattered Clouds,100,2012-12-06 15:56:00
10:56 AM,75.0,55.0,50,30.00,10.0,East,4.6,-,N/A,,Scattered Clouds,100,2012-12-06 16:56:00
11:56 AM,75.9,54.0,46,29.97,10.0,ESE,9.2,-,N/A,,Scattered Clouds,120,2012-12-06 17:56:00
12:56 PM,77.0,51.1,40,29.95,10.0,ESE,9.2,-,N/A,,Scattered Clouds,110,2012-12-06 18:56:00
1:56 PM,75.0,52.0,44,29.94,10.0,East,10.4,-,N/A,,Scattered Clouds,90,2012-12-06 19:56:00
2:56 PM,77.0,52.0,42,29.94,10.0,SE,4.6,-,N/A,,Scattered Clouds,140,2012-12-06 20:56:00
3:56 PM,75.9,52.0,43,29.93,10.0,East,5.8,-,N/A,,Scattered Clouds,90,2012-12-06 21:56:00
4:56 PM,66.9,53.1,61,29.94,10.0,East,4.6,-,N/A,,Scattered Clouds,100,2012-12-06 22:56:00
5:56 PM,66.0,60.1,81,29.96,10.0,Calm,Calm,-,N/A,,Scattered Clouds,0,2012-12-06 23:56:00
6:56 PM,59.0,57.0,93,29.96,10.0,Calm,Calm,-,N/A,,Scattered Clouds,0,2012-12-07 00:56:00
7:56 PM,62.1,57.0,84,29.96,8.0,Calm,Calm,-,N/A,,Clear,0,2012-12-07 01:56:00
8:56 PM,55.9,52.0,87,29.97,10.0,NNE,3.5,-,N/A,,Partly Cloudy,20,2012-12-07 02:56:00
9:56 PM,59.0,53.1,81,29.96,10.0,ENE,3.5,-,N/A,,Partly Cloudy,70,2012-12-07 03:56:00
10:56 PM,61.0,55.0,81,29.96,10.0,East,4.6,-,N/A,,Clear,80,2012-12-07 04:56:00
11:56 PM,60.1,53.1,78,29.94,10.0,East,8.1,-,N/A,,Clear,90,2012-12-07 05:56:00